Location: Gro� Glienicke
(52.4675°N, 13.1079°E)
Time: 17:53:15
(UTC+00:00)

Lacrosse 5 rocket - Pass Details

Date: 06 July 2020
Orbit: 465 x 632 km, 57.0° (Epoch: 12 August)

Event Time Altitude Azimuth Distance (km) Brightness Sun altitude
Rises 22:48:46 0° 296° (WNW) 2,734 5.3 -14.8°
Reaches altitude 10° 22:51:04 10° 298° (WNW) 1,808 4.4 -14.8°
Maximum altitude 22:55:09 84° 26° (NNE) 528 1.2 -14.9°
Drops below altitude 10° 22:58:59 10° 116° (ESE) 1,704 3.5 -14.9°
Enters shadow 22:59:12 - 116° (ESE) 1,787 3.6 -14.9°
